Wind_Speed
34 33 36 39 42 45 46 47 50 50 49 49 50 51 52 51 51 51 51 51 52 52 52 52 51 50 51 51 51 50 49 49 49 46 45 44 44 43 41 40 40 39 39
41 40 39 40 41 42 45 46 46 47 48 49 49 50 52 53 54 54 54 53 54 54 54 55 54 54 54 54 54 53 53 53 53 51 50 49 48 47 46 46 45 44 44
37 42 44 41 40 41 43 45 48 48 47 47 47 49 50 51 53 55 55 56 56 56 56 57 57 57 57 56 56 57 56 57 57 56 54 53 52 52 51 50 49 49 48
33 35 39 43 42 40 39 39 40 42 44 46 48 50 50 49 51 53 55 56 58 58 58 59 59 59 59 59 58 59 59 59 59 59 58 57 56 55 54 53 53 53 53
28 29 30 31 35 36 38 39 40 40 39 40 41 43 46 49 50 50 51 52 55 57 59 60 60 60 60 61 62 61 61 61 61 60 61 60 60 59 59 59 59 58 58
28 27 28 27 28 30 30 31 33 35 39 40 41 41 42 43 44 45 47 48 49 50 49 50 53 55 57 58 59 60 61 63 64 64 65 65 64 62 61 62 62 61 62
28 29 28 29 29 29 29 28 30 30 30 31 32 33 35 40 44 47 49 48 48 48 48 49 49 49 49 48 48 49 50 52 54 56 58 60 61 62 62 62 61 60 59
28 27 28 29 30 29 31 32 30 30 29 31 31 31 31 30 32 35 40 42 43 45 47 48 49 50 51 50 50 51 51 51 51 51 52 52 52 54 55 56 56 55 57
32 32 32 32 32 31 31 32 31 31 31 31 31 31 31 31 31 31 34 36 37 36 36 38 40 41 40 41 43 43 45 46 46 47 48 48 48 49 50 51 53 53 54
37 36 36 36 36 36 36 35 35 35 34 34 33 32 31 30 31 32 32 33 34 36 37 37 37 36 36 37 37 39 39 39 39 40 41 42 43 44 45 45 46 47 49
42 41 40 39 40 39 39 38 38 38 38 38 38 37 36 36 33 33 33 34 35 35 35 35 35 35 35 34 34 36 35 35 35 37 38 37 38 37 37 38 38 38 40
45 46 46 45 44 44 43 42 41 41 41 41 41 40 39 39 39 38 37 37 38 37 36 36 35 35 36 35 35 35 35 35 35 34 35 35 35 34 33 34 35 35 37
48 48 49 49 49 49 49 48 47 45 45 45 44 43 42 41 42 41 41 41 41 41 41 39 36 36 36 36 37 37 37 38 39 39 38 37 36 36 36 37 38 40 41
51 51 52 52 52 52 52 52 52 51 50 48 47 47 45 44 43 43 42 42 42 42 42 43 42 41 40 39 38 36 37 38 38 39 40 40 40 39 39 40 41 44 47
48 48 50 51 53 53 53 53 53 53 53 52 51 50 50 48 45 44 43 43 42 42 42 43 44 44 43 42 42 40 38 38 37 37 37 38 39 39 41 40 40 41 43
44 44 45 46 47 48 49 50 48 51 53 52 52 52 51 51 49 47 45 44 43 42 42 44 44 44 46 46 45 45 44 42 38 38 38 38 39 40 40 40 39 39 39
41 41 42 41 41 41 42 44 47 43 44 47 48 49 49 49 48 46 45 44 43 41 42 44 45 45 45 45 44 44 45 44 43 42 40 40 40 40 40 41 40 40 41
38 37 36 35 35 35 35 35 37 39 40 40 39 42 44 44 44 44 43 41 41 43 44 45 45 45 45 46 45 44 42 41 42 43 43 44 43 42 42 43 42 42 42
35 34 33 32 30 29 30 31 33 33 34 34 34 35 35 37 38 38 37 40 43 44 43 44 44 44 44 43 44 45 44 42 40 40 40 41 42 43 43 43 43 43 43
33 31 31 30 29 28 27 28 28 28 28 28 28 29 29 31 30 29 31 33 36 38 40 41 41 42 42 42 42 42 44 44 43 41 39 39 37 37 39 39 39 38 39
31 29 26 27 26 26 26 26 26 27 25 24 23 22 20 17 20 22 24 29 31 32 33 35 37 38 39 40 40 39 40 40 45 42 40 39 37 36 35 37 39 39 40
30 26 27 28 30 31 31 31 29 28 27 28 27 25 24 24 26 30 33 35 33 33 33 35 35 34 34 34 35 36 36 35 34 34 42 34 35 36 37 41 42 42 41
30 29 28 28 29 30 29 29 30 32 34 34 33 31 29 28 29 29 30 33 34 34 34 35 36 34 32 31 31 31 31 31 29 30 31 32 39 41 42 43 43 44 44
32 30 29 30 30 30 28 27 27 25 26 26 27 28 29 30 31 31 31 31 32 33 34 34 34 33 30 31 31 30 31 30 34 38 39 40 42 45 45 44 44 43 40
32 31 31 31 30 29 27 25 24 23 21 20 20 19 19 21 22 23 23 24 25 26 27 29 31 32 30 30 29 28 28 29 31 31 34 36 37 37 36 35 34 34 33
34 33 32 31 31 29 27 25 23 22 20 19 17 17 17 17 18 19 19 19 20 21 23 24 25 26 28 28 28 27 27 27 28 30 30 31 31 31 32 32 32 31 31
Wind_Direction
263 256 249 246 246 248 249 252 257 258 256 253 247 244 244 244 243 244 244 243 242 241 240 238 238 239 241 243 244 245 245 245 248 246 245 245 246 248 249 251 253 255 256
266 263 260 256 252 250 250 251 250 253 256 257 256 253 248 244 244 244 244 245 245 244 244 243 242 241 242 243 245 246 247 248 248 249 248 248 249 249 249 250 251 253 255
262 258 258 257 253 250 249 247 247 246 247 250 255 258 257 255 250 246 245 245 245 245 245 246 246 245 244 243 246 247 247 249 250 250 250 249 249 250 251 252 253 254 257
270 264 260 257 256 255 252 248 245 243 242 242 244 246 247 249 251 252 250 249 248 247 246 246 246 246 246 246 245 246 249 250 250 251 251 251 250 250 250 250 252 254 255
278 274 268 267 265 263 261 261 259 256 251 248 246 244 242 242 242 243 243 245 247 248 248 247 247 248 248 248 248 247 247 247 249 251 252 253 252 251 252 255 256 256 257
287 281 279 276 273 272 269 268 266 264 260 256 254 252 252 250 248 246 246 246 245 245 245 246 247 247 248 249 250 251 251 251 250 250 250 250 251 253 253 257 259 258 258
298 296 293 291 285 281 278 274 268 267 267 266 263 258 255 254 253 253 252 251 252 254 255 255 254 253 253 253 253 254 253 253 253 253 253 253 253 252 253 254 255 256 258
292 291 290 290 290 290 292 291 285 278 274 269 268 268 264 260 259 258 256 254 254 254 254 255 255 256 256 256 255 253 252 252 251 252 254 254 255 256 256 255 255 256 256
293 291 289 287 285 283 281 281 282 283 283 282 278 275 271 268 263 261 262 261 259 258 257 257 257 256 255 257 257 254 254 255 255 254 252 252 253 253 254 255 256 257 256
291 290 288 286 285 283 282 281 279 278 277 275 273 272 270 268 269 267 264 263 264 263 260 258 257 258 256 255 255 256 255 254 253 254 255 255 255 255 256 255 255 255 256
291 290 288 286 284 282 280 279 278 277 276 275 273 272 271 270 266 265 264 263 262 262 261 261 261 259 256 255 255 256 255 252 251 250 252 254 254 254 255 257 256 256 256
289 288 287 287 286 284 282 280 277 276 273 272 270 270 270 269 269 266 264 263 263 262 260 260 259 259 261 259 257 256 256 256 254 252 250 250 253 255 257 260 260 258 256
288 287 286 285 284 284 283 281 278 276 274 273 271 269 267 265 265 265 263 262 262 263 264 261 260 260 258 258 257 256 254 254 256 257 254 254 254 256 255 254 253 254 254
288 286 285 284 282 280 279 279 278 277 275 274 273 271 268 266 264 263 263 262 262 261 261 261 260 258 256 256 257 256 255 255 254 254 258 259 257 254 254 254 254 252 252
292 290 287 284 282 279 278 277 275 274 274 273 271 270 269 268 266 264 262 260 260 259 258 257 257 257 257 257 257 256 255 255 254 254 253 254 257 258 258 256 253 251 250
300 298 295 291 287 283 279 274 270 271 270 270 269 269 268 267 266 264 262 260 258 256 253 253 252 251 251 250 250 251 250 252 252 253 254 253 252 251 252 253 253 252 252
308 307 305 300 295 290 284 280 277 267 267 266 266 265 264 264 264 264 263 260 257 254 252 251 251 251 251 251 251 251 253 251 250 247 246 249 249 249 249 249 249 248 247
313 315 313 309 304 299 297 291 285 282 276 264 262 265 263 262 260 260 260 261 257 254 252 252 253 253 252 254 254 255 254 251 249 249 248 246 247 248 247 248 249 250 250
316 317 316 315 313 310 306 302 297 292 286 280 273 266 267 265 261 259 257 255 255 254 253 252 253 253 253 253 253 254 252 253 252 251 250 248 245 245 246 246 246 247 248
321 316 314 313 311 311 311 307 301 298 296 292 284 277 267 265 266 263 259 254 253 254 253 253 252 252 251 250 250 249 249 248 249 251 249 250 248 246 246 245 245 247 249
323 320 317 318 316 311 309 309 303 298 297 296 292 284 275 277 279 265 262 259 255 253 252 252 251 251 252 251 250 249 248 248 240 244 246 245 249 251 248 247 250 254 258
320 319 320 321 319 315 309 302 298 295 292 287 283 280 276 263 242 243 251 257 259 256 253 252 251 251 251 251 250 248 248 247 246 242 236 236 240 243 245 250 254 256 258
312 313 314 319 319 315 310 302 295 291 288 285 281 278 276 272 269 264 259 257 258 260 256 253 254 252 252 251 248 245 242 238 234 231 235 235 235 239 245 249 252 258 266
312 315 314 315 314 313 316 319 314 304 298 296 290 281 277 274 272 271 270 267 262 259 258 255 254 253 250 248 247 245 239 235 231 228 229 232 235 240 246 249 253 257 259
322 317 315 311 307 306 309 312 314 316 313 306 301 296 289 282 279 276 272 268 265 261 259 257 253 251 248 243 242 241 238 235 236 237 238 241 244 248 250 251 251 253 255
324 315 309 307 307 307 301 300 304 308 310 311 310 306 301 294 287 281 276 272 269 265 261 257 254 250 247 242 239 237 236 232 234 238 239 241 243 247 250 253 254 255 255
Height
3028 3027 3026 3025 3025 3025 3026 3026 3027 3027 3028 3028 3030 3031 3034 3036 3038 3040 3042 3044 3046 3049 3051 3053 3055 3059 3062 3064 3067 3069 3072 3074 3076 3081 3083 3086 3088 3091 3094 3096 3098 3100 3102
3018 3018 3017 3015 3014 3013 3013 3014 3014 3016 3016 3017 3018 3019 3020 3022 3025 3027 3029 3032 3034 3036 3039 3041 3043 3045 3048 3051 3054 3056 3059 3062 3064 3067 3071 3073 3076 3079 3081 3083 3086 3088 3090
3006 3006 3006 3004 3003 3001 3001 3001 3002 3002 3003 3004 3005 3007 3009 3010 3011 3013 3015 3017 3020 3022 3025 3027 3031 3032 3034 3036 3040 3042 3045 3047 3050 3053 3056 3059 3062 3065 3068 3071 3073 3076 3079
2995 2994 2993 2992 2991 2990 2989 2988 2988 2988 2988 2989 2991 2992 2993 2995 2997 2998 3000 3003 3005 3008 3010 3012 3015 3018 3020 3023 3024 3027 3030 3033 3035 3037 3041 3044 3047 3051 3053 3056 3059 3062 3065
2987 2985 2982 2981 2980 2979 2978 2977 2977 2976 2975 2976 2977 2978 2979 2980 2981 2982 2983 2986 2989 2992 2995 2997 2999 3002 3005 3007 3010 3011 3013 3016 3019 3022 3026 3029 3032 3035 3038 3043 3044 3047 3049
2979 2976 2975 2973 2971 2970 2967 2967 2965 2964 2964 2964 2964 2966 2967 2967 2967 2968 2970 2973 2974 2976 2978 2980 2982 2984 2988 2991 2993 2996 2999 3001 3004 3006 3009 3013 3017 3020 3023 3026 3027 3029 3032
2970 2968 2966 2964 2962 2960 2959 2957 2955 2954 2955 2953 2953 2953 2953 2954 2954 2955 2957 2959 2961 2963 2965 2966 2968 2970 2973 2976 2978 2980 2982 2985 2987 2991 2993 2997 3001 3004 3008 3008 3011 3013 3017
2964 2961 2958 2956 2954 2952 2950 2948 2946 2944 2942 2943 2944 2944 2944 2942 2942 2942 2943 2946 2946 2948 2950 2952 2953 2956 2958 2961 2963 2965 2966 2968 2972 2975 2979 2982 2985 2988 2991 2993 2995 2997 2999
2955 2953 2950 2947 2945 2943 2942 2941 2938 2936 2934 2935 2933 2933 2933 2934 2932 2930 2931 2933 2934 2936 2937 2938 2940 2942 2944 2948 2950 2952 2952 2954 2956 2959 2961 2966 2969 2971 2974 2976 2978 2982 2983
2944 2942 2940 2937 2935 2933 2931 2929 2927 2926 2925 2926 2925 2924 2923 2923 2921 2921 2920 2920 2923 2924 2926 2927 2929 2931 2932 2934 2936 2939 2940 2942 2943 2944 2947 2951 2954 2957 2959 2961 2963 2966 2969
2931 2929 2927 2925 2923 2921 2919 2918 2916 2915 2913 2914 2913 2912 2911 2912 2911 2911 2910 2910 2911 2913 2913 2915 2917 2918 2920 2923 2925 2928 2929 2931 2932 2932 2934 2936 2940 2944 2946 2948 2951 2953 2956
2918 2915 2912 2910 2908 2906 2905 2904 2903 2902 2901 2900 2900 2900 2899 2898 2898 2900 2899 2899 2901 2901 2902 2904 2905 2907 2909 2912 2913 2915 2918 2919 2920 2921 2922 2924 2928 2931 2935 2938 2939 2941 2944
2904 2901 2898 2895 2893 2890 2888 2887 2887 2887 2885 2885 2885 2885 2886 2886 2886 2886 2887 2888 2889 2888 2889 2891 2893 2895 2897 2898 2901 2903 2907 2907 2909 2909 2911 2913 2917 2922 2923 2926 2929 2931 2933
2889 2886 2882 2879 2876 2874 2872 2870 2868 2867 2868 2868 2868 2868 2869 2871 2871 2872 2873 2874 2875 2875 2876 2878 2880 2882 2883 2886 2889 2892 2893 2896 2898 2898 2899 2902 2904 2905 2910 2915 2918 2921 2922
2872 2869 2865 2862 2859 2857 2855 2853 2851 2851 2849 2849 2850 2850 2850 2853 2855 2856 2857 2859 2860 2863 2863 2864 2866 2867 2870 2873 2875 2877 2879 2884 2884 2884 2887 2889 2891 2893 2898 2901 2904 2907 2909
2857 2853 2850 2845 2842 2838 2835 2835 2835 2832 2831 2831 2831 2831 2832 2833 2835 2837 2840 2842 2845 2848 2848 2849 2851 2853 2855 2857 2859 2862 2866 2870 2868 2871 2874 2877 2881 2883 2887 2889 2892 2895 2896
2845 2840 2834 2829 2825 2821 2818 2815 2814 2817 2815 2814 2814 2815 2815 2817 2818 2821 2823 2825 2828 2830 2831 2832 2834 2837 2840 2842 2844 2848 2851 2852 2854 2857 2861 2865 2868 2873 2876 2877 2881 2882 2886
2835 2829 2822 2817 2812 2808 2805 2802 2799 2798 2798 2801 2801 2799 2801 2802 2804 2806 2807 2809 2810 2812 2814 2815 2818 2822 2824 2826 2829 2832 2836 2839 2842 2844 2848 2852 2855 2859 2863 2865 2868 2872 2874
2826 2820 2814 2809 2804 2800 2796 2792 2789 2787 2785 2785 2786 2788 2787 2787 2789 2792 2794 2792 2793 2796 2799 2801 2804 2806 2808 2811 2814 2818 2823 2826 2828 2831 2834 2838 2843 2846 2849 2852 2855 2858 2859
2818 2812 2806 2801 2796 2792 2789 2785 2781 2778 2776 2774 2774 2774 2776 2776 2777 2778 2778 2779 2780 2782 2785 2787 2790 2792 2795 2798 2801 2804 2806 2810 2813 2817 2822 2825 2829 2833 2837 2840 2842 2844 2845
2811 2805 2799 2795 2791 2787 2783 2779 2775 2771 2769 2767 2766 2765 2766 2768 2768 2767 2768 2768 2770 2771 2773 2774 2777 2780 2783 2785 2788 2790 2793 2796 2801 2805 2810 2815 2819 2823 2826 2828 2829 2831 2833
2803 2798 2793 2788 2783 2779 2775 2771 2768 2765 2762 2759 2758 2757 2757 2757 2757 2757 2757 2758 2759 2761 2762 2763 2766 2768 2770 2772 2775 2777 2780 2784 2788 2792 2799 2804 2808 2810 2813 2815 2817 2819 2820
2796 2791 2786 2782 2777 2773 2768 2764 2759 2756 2752 2750 2748 2747 2747 2747 2747 2747 2748 2748 2749 2749 2751 2752 2754 2757 2760 2762 2764 2767 2770 2775 2779 2784 2788 2792 2796 2799 2801 2803 2804 2806 2808
2788 2783 2778 2773 2769 2765 2760 2755 2750 2747 2743 2740 2738 2737 2736 2736 2736 2736 2736 2737 2737 2738 2738 2741 2743 2745 2749 2751 2754 2757 2761 2764 2768 2773 2777 2781 2784 2787 2789 2791 2792 2794 2795
2780 2775 2770 2766 2761 2757 2753 2749 2745 2741 2737 2734 2731 2729 2728 2727 2726 2726 2726 2726 2726 2726 2727 2729 2731 2734 2737 2740 2744 2747 2751 2754 2758 2762 2765 2769 2772 2774 2776 2778 2780 2782 2783
2772 2766 2761 2756 2752 2748 2745 2742 2739 2736 2733 2730 2727 2724 2722 2721 2720 2719 2718 2718 2717 2718 2718 2720 2721 2723 2726 2730 2734 2738 2741 2745 2748 2751 2755 2758 2761 2763 2765 2767 2769 2771 2772